This is the latest recevied weather packets stored in our database for station/object NO4D. If no packets are shown the sender has not sent any weather packets the latest 10 day(s).
| Time | Temp. | Humidity | Pressure | Rain* | Wind** | Luminosity | Snow |
|---|---|---|---|---|---|---|---|
| 1777660346 | 17.78° C | 55% | 1014.3 hPa | 0 mm | - | 455 W/m² | - |
| 1777660042 | 17.78° C | 54% | 1014.5 hPa | 0 mm | - | 380 W/m² | - |
| 1777659739 | 17.78° C | 54% | 1014.3 hPa | 0 mm | - | 388 W/m² | - |
| 1777659436 | 17.78° C | 54% | 1014.4 hPa | 0 mm | - | 376 W/m² | - |
| 1777659134 | 17.78° C | 52% | 1014.4 hPa | 0 mm | - | 628 W/m² | - |
| 1777658832 | 17.78° C | 53% | 1014.7 hPa | 0 mm | - | 448 W/m² | - |
| 1777658527 | 17.78° C | 52% | 1014.7 hPa | 0 mm | - | 511 W/m² | - |
| 1777658223 | 17.78° C | 53% | 1014.6 hPa | 0 mm | - | 469 W/m² | - |
| 1777657920 | 18.33° C | 51% | 1014.7 hPa | 0 mm | - | 573 W/m² | - |
| 1777657617 | 17.78° C | 51% | 1014.6 hPa | 0 mm | - | 469 W/m² | - |
| 1777657315 | 17.78° C | 49% | 1014.6 hPa | 0 mm | - | 564 W/m² | - |
| 1777657012 | 17.22° C | 50% | 1014.7 hPa | 0 mm | - | 567 W/m² | - |
| 1777656709 | 17.78° C | 51% | 1014.8 hPa | 0 mm | - | 506 W/m² | - |
| 1777656405 | 17.78° C | 51% | 1014.7 hPa | 0 mm | - | 603 W/m² | - |
| 1777656100 | 17.78° C | 52% | 1015 hPa | 0 mm | - | 583 W/m² | - |
| 1777655796 | 17.78° C | 52% | 1015.1 hPa | 0 mm | - | 530 W/m² | - |
| 1777655493 | 17.22° C | 49% | 1015 hPa | 0 mm | - | 423 W/m² | - |
| 1777655190 | 17.22° C | 51% | 1015 hPa | 0 mm | - | 331 W/m² | - |
| 1777654887 | 17.78° C | 51% | 1015.3 hPa | 0 mm | - | 298 W/m² | - |
| 1777654584 | 17.22° C | 52% | 1015 hPa | 0 mm | - | 323 W/m² | - |
| 1777654281 | 17.22° C | 51% | 1015.2 hPa | 0 mm | - | 350 W/m² | - |
| 1777653980 | 17.22° C | 50% | 1015.4 hPa | 0 mm | - | 315 W/m² | - |
| 1777653677 | 17.22° C | 50% | 1015.2 hPa | 0 mm | - | 396 W/m² | - |
| 1777653373 | 17.78° C | 52% | 1015.5 hPa | 0 mm | - | 399 W/m² | - |
| 1777653070 | 16.67° C | 49% | 1015.5 hPa | 0 mm | - | 402 W/m² | - |
* Rain latest hour (hover to see other rain measurements)
** Current wind speed in m/s (hover to see current wind gust speed)